Location: Gebenbach
(49.5378°N, 11.8735°E)
Time: 03:21:23
(UTC+00:00)

ATLAS 2AS CENTAUR R/B - Pass Details

Date: 29 October 2020
Orbit: 939 x 1273 km, 63.7° (Epoch: 23 November)

Event Time Altitude Azimuth Distance (km) Brightness Sun altitude
Rises 18:13:49 0° 316° (NW) 4,173 6.5 -23.0°
Reaches altitude 10° 18:16:42 10° 319° (NW) 3,168 5.8 -23.5°
Maximum altitude 18:24:19 72° 44° (NE) 1,202 2.8 -24.7°
Enters shadow 18:26:17 50° 111° (ESE) 1,408 2.9 -25.0°
